{"data":{"norad_id":54830,"epoch":"2026-05-25T03:43:16.739040Z","epoch_age_seconds":75750,"freshness":"FRESH","line1":"1 54830U 22177L   26145.15505485 -.00000150  00000+0  40849-5 0  9996","line2":"2 54830  43.0047  64.5712 0001023 272.4386  87.6349 15.27573498188615","mean_motion":15.27573498,"eccentricity":0.0001023,"inclination_deg":43.0047,"raan_deg":64.5712,"arg_perigee_deg":272.4386,"mean_anomaly_deg":87.6349,"bstar":4.0849e-6,"rev_number":18861,"period_min":94.267149952873,"perigee_km":482.36666410645,"apogee_km":483.77046676514,"semimajor_km":6861.2055654358,"source":"CELESTRAK","updated_at":"2026-05-25T13:38:17.721845Z"}}